[[{"header":{"parameterUnit":"m.s-1","parameterCategory":1,"la1":30.2991,"la2":30.254,"lo1":-89.0895,"lo2":-89.0444,"dy":0.0017,"dx":0.0017,"nx":28,"ny":28,"refTime":"2025-08-27T21:00:00:Z","depth":0,"parameterNumber":2,"parameterNumberName":"U-component_of_WINDS"},"data":[0,0,0,0,0,0,0,0,0,0,0,0,0,0,0,0,0,0,0,0,0,0,0,0,0,0,0,0,0,0,0,0,0,0,0,0,0,0,0,0,0,0,0,0,0,0,0,0,0,0,0,0,0,0,0,0,0,0,-0.0851,-0.085,0,-0.0792,-0.0791,-0.0791,-0.0765,-0.0765,-0.0765,-0.0765,-0.0703,-0.0701,-0.07,0,0,0,0,0,0,0,0,0,0,0,0,0,-0.094,-0.0939,-0.0851,-0.085,-0.085,-0.0792,-0.0791,-0.079,-0.0765,-0.0765,-0.0765,-0.0765,-0.0704,-0.0701,-0.0699,0,0,0,0,0,0,0,0,0,0,0,0,0,-0.0893,-0.0938,-0.0851,-0.083,-0.0828,-0.0792,-0.0791,-0.079,-0.0765,-0.0765,-0.0765,-0.0766,-0.0704,-0.0702,-0.0699,-0.068,0,0,-0.0691,-0.069,0,0,0,0,0,0,0,0,-0.0896,-0.089,-0.0834,-0.0832,-0.0829,-0.0786,-0.08,-0.0753,-0.0765,-0.0789,-0.0765,-0.0766,-0.073,-0.0726,-0.0714,-0.0677,-0.0674,-0.0691,-0.0689,-0.0688,-0.0687,0,0,0,0,0,0,0,-0.0899,-0.0893,-0.0828,-0.0833,-0.083,-0.0823,-0.0816,-0.0791,-0.0759,-0.0787,-0.0785,-0.0778,-0.0729,-0.0717,-0.0712,-0.0673,-0.0691,-0.0689,-0.0687,-0.0686,-0.0616,-0.0616,0,0,0,0,0,0,-0.0906,-0.0895,-0.083,-0.0826,-0.0864,-0.0821,-0.0814,-0.08,-0.076,-0.0754,-0.0778,-0.0777,-0.0721,-0.0716,-0.071,-0.0684,-0.0688,-0.0686,-0.0684,-0.0616,-0.0616,-0.0616,0,0,0,0,0,0,-0.0908,-0.0901,-0.0832,-0.086,-0.0851,-0.082,-0.0804,-0.0798,-0.0786,-0.0753,-0.0747,-0.0772,-0.0721,-0.0714,-0.0687,-0.0682,-0.0684,-0.0682,-0.0617,-0.0616,-0.0616,-0.0633,0,0,0,0,0,0,-0.0911,-0.0902,-0.0894,-0.086,-0.0849,-0.0811,-0.0803,-0.0797,-0.0782,-0.078,-0.0745,-0.074,-0.0721,-0.0691,-0.0685,-0.0678,-0.068,-0.0617,-0.0616,-0.0616,-0.0632,-0.0633,-0.0633,0,0,0,0,0,-0.0914,-0.0901,-0.0894,-0.0886,-0.084,-0.0811,-0.0804,-0.0783,-0.0781,-0.0774,-0.0752,-0.0741,-0.0684,-0.0689,-0.0681,-0.0674,-0.0617,-0.0616,-0.0616,-0.0632,-0.0633,-0.0633,0,0,0,0,0,0,-0.0935,-0.0896,-0.0888,-0.0864,-0.0841,-0.0806,-0.0796,-0.0784,-0.0761,-0.076,-0.0734,-0.0727,-0.0702,-0.0685,-0.0692,-0.0652,-0.0649,-0.0647,-0.0664,-0.0664,-0.0665,-0.0669,-0.0678,0,0,0,0,0,-0.0937,-0.0917,-0.0884,-0.0866,-0.0855,-0.0827,-0.0814,-0.0799,-0.0774,-0.0764,-0.0741,-0.0716,-0.0693,-0.0678,-0.0654,-0.063,-0.0621,-0.0621,-0.0621,-0.0622,-0.062,-0.0605,-0.0604,-0.0614,-0.0614,-0.0614,0,0,-0.0941,-0.0917,-0.0906,-0.0869,-0.085,-0.0829,-0.0819,-0.0798,-0.0782,-0.0761,-0.0734,-0.0716,-0.0687,-0.0662,-0.0649,-0.0647,-0.0615,-0.0621,-0.0622,-0.0619,-0.0604,-0.0603,-0.0603,-0.0613,-0.0613,-0.0613,0,0,-0.0936,-0.0917,-0.0899,-0.088,-0.085,-0.0832,-0.0828,-0.0795,-0.0782,-0.0756,-0.0739,-0.072,-0.068,-0.0659,-0.0644,-0.0632,-0.062,-0.0625,-0.0626,-0.0612,-0.0611,-0.0611,-0.0605,-0.0604,-0.0623,-0.0623,-0.0623,0,-0.0944,-0.0913,-0.0891,-0.087,-0.0855,-0.0835,-0.0816,-0.0798,-0.0763,-0.0752,-0.075,-0.0699,-0.0678,-0.0647,-0.0644,-0.0632,-0.0626,-0.0628,-0.0613,-0.0612,-0.0611,-0.0606,-0.0604,-0.0624,-0.0624,-0.0624,-0.0624,0,-0.0924,-0.0902,-0.0891,-0.0857,-0.084,-0.0821,-0.0795,-0.0781,-0.0768,-0.075,-0.0722,-0.0696,-0.0667,-0.0659,-0.0646,-0.0625,-0.0625,-0.0619,-0.0615,-0.0611,-0.0606,-0.0604,-0.0625,-0.0625,-0.0624,-0.0624,0,0,-0.0931,-0.0885,-0.0882,-0.0866,-0.0832,-0.0814,-0.0793,-0.0765,-0.0753,-0.0729,-0.071,-0.0677,-0.067,-0.0653,-0.0637,-0.0625,-0.0616,-0.062,-0.0619,-0.062,-0.0591,-0.0596,-0.0594,-0.0608,-0.0608,-0.0607,-0.0594,0,-0.0922,-0.0884,-0.0864,-0.0834,-0.0813,-0.0794,-0.0776,-0.0753,-0.0735,-0.0715,-0.0695,-0.0671,-0.0665,-0.0655,-0.0642,-0.062,-0.061,-0.0621,-0.059,-0.0589,-0.0597,-0.0591,-0.0596,-0.0584,-0.0591,-0.0591,-0.0591,0,-0.0906,-0.0882,-0.0851,-0.0818,-0.0809,-0.0793,-0.0765,-0.0746,-0.0719,-0.0707,-0.0687,-0.0672,-0.0649,-0.0647,-0.0614,-0.0622,-0.0608,-0.0596,-0.0595,-0.059,-0.0589,-0.0586,-0.058,-0.0578,-0.0587,-0.0588,-0.0588,0,-0.0913,-0.0874,-0.085,-0.0837,-0.0799,-0.0788,-0.0771,-0.0744,-0.0729,-0.0704,-0.0693,-0.0666,-0.0651,-0.0631,-0.0608,-0.0609,-0.0577,-0.0574,-0.0566,-0.0566,-0.0559,-0.056,-0.055,-0.0552,-0.0552,-0.0552,-0.0552,0,-0.0905,-0.0886,-0.0853,-0.0838,-0.0816,-0.0792,-0.0771,-0.0753,-0.073,-0.071,-0.0692,-0.0675,-0.0646,-0.0625,-0.0607,-0.0582,-0.0576,-0.0565,-0.056,-0.0566,-0.0567,-0.0556,-0.0556,-0.0551,-0.0551,-0.0552,-0.0552,0,-0.091,-0.0886,-0.0859,-0.0825,-0.0816,-0.0801,-0.0772,-0.0756,-0.0738,-0.0714,-0.0707,-0.0677,-0.0651,-0.0627,-0.0592,-0.058,-0.0555,-0.0549,-0.0564,-0.0561,-0.0554,-0.0555,-0.0536,-0.0532,-0.0537,-0.0537,-0.0537,0,-0.0905,-0.0891,-0.0855,-0.0841,-0.0825,-0.0803,-0.0786,-0.0762,-0.0746,-0.0714,-0.0702,-0.0675,-0.0651,-0.061,-0.0585,-0.0558,-0.0552,-0.0547,-0.0547,-0.0554,-0.0551,-0.0552,-0.055,-0.0547,-0.0547,-0.0547,-0.0547,0,-0.09,-0.0889,-0.0867,-0.084,-0.0821,-0.0798,-0.0775,-0.0765,-0.0736,-0.0719,-0.0692,-0.0674,-0.0638,-0.0611,-0.0581,-0.0563,-0.055,-0.0548,-0.0544,-0.055,-0.0558,-0.0553,-0.0564,-0.0548,-0.0548,-0.0548,-0.0548,-0.0548,-0.09,-0.0885,-0.0858,-0.0833,-0.0813,-0.0792,-0.0776,-0.0755,-0.0732,-0.0701,-0.0689,-0.0661,-0.0634,-0.0592,-0.0575,-0.0553,-0.055,-0.0545,-0.0544,-0.0543,-0.0544,-0.0563,-0.0547,-0.0547,-0.0547,-0.0547,-0.0547,0,-0.0893,-0.0874,-0.0852,-0.082,-0.08,-0.079,-0.0764,-0.0748,-0.0724,-0.07,-0.0677,-0.0646,-0.0619,-0.0592,-0.0564,-0.0552,-0.0545,-0.0545,-0.0545,-0.0541,-0.0548,-0.0554,-0.0551,-0.0551,-0.0551,-0.0551,-0.0551,-0.0551,-0.0887,-0.0862,-0.0848,-0.0812,-0.0794,-0.0767,-0.0753,-0.0733,-0.0713,-0.0679,-0.0657,-0.064,-0.0614,-0.0584,-0.0559,-0.0551,-0.0541,-0.0543,-0.0534,-0.0541,-0.0541,-0.0541,-0.0546,-0.0541,-0.0541,-0.0529,-0.0529,-0.0529]},{"header":{"parameterUnit":"m.s-1","parameterCategory":1,"la1":30.2991,"la2":30.254,"lo1":-89.0895,"lo2":-89.0444,"dy":0.0017,"dx":0.0017,"nx":28,"ny":28,"refTime":"2025-08-27T21:00:00:Z","depth":0,"parameterNumber":3,"parameterNumberName":"V-component_of_WINDS"},"data":[0,0,0,0,0,0,0,0,0,0,0,0,0,0,0,0,0,0,0,0,0,0,0,0,0,0,0,0,0,0,0,0,0,0,0,0,0,0,0,0,0,0,0,0,0,0,0,0,0,0,0,0,0,0,0,0,0,0,5.3269,5.3269,0,5.3251,5.3251,5.3251,5.3225,5.3225,5.3225,5.3224,5.3205,5.3205,5.3205,0,0,0,0,0,0,0,0,0,0,0,0,0,5.3281,5.3281,5.3269,5.3269,5.3269,5.3251,5.3251,5.3251,5.3226,5.3225,5.3224,5.3224,5.3205,5.3205,5.3205,0,0,0,0,0,0,0,0,0,0,0,0,0,5.3271,5.3281,5.3269,5.3254,5.3252,5.3251,5.3251,5.3251,5.3226,5.3225,5.3224,5.3224,5.3205,5.3205,5.3205,5.3217,0,0,5.3204,5.3204,0,0,0,0,0,0,0,0,5.3271,5.327,5.3256,5.3255,5.3253,5.324,5.3248,5.3239,5.3226,5.3236,5.3224,5.3223,5.3217,5.3216,5.3214,5.3216,5.3215,5.3204,5.3204,5.3204,5.3204,0,0,0,0,0,0,0,5.3272,5.3271,5.3262,5.3256,5.3254,5.3248,5.3246,5.3246,5.323,5.3235,5.3233,5.3231,5.3216,5.3214,5.3213,5.3215,5.3204,5.3204,5.3204,5.3204,5.3226,5.3226,0,0,0,0,0,0,5.3275,5.3272,5.3262,5.3261,5.3261,5.3248,5.3246,5.3245,5.323,5.3227,5.3232,5.323,5.3215,5.3214,5.3213,5.3225,5.3204,5.3204,5.3204,5.3225,5.3226,5.3226,0,0,0,0,0,0,5.3275,5.3274,5.3263,5.3266,5.3264,5.3249,5.3248,5.3245,5.3243,5.3228,5.3225,5.3233,5.3214,5.3213,5.3216,5.3224,5.3204,5.3204,5.3224,5.3225,5.3226,5.3251,0,0,0,0,0,0,5.3276,5.3275,5.3279,5.3266,5.3264,5.3267,5.3248,5.3245,5.3243,5.324,5.3228,5.3225,5.3214,5.3216,5.3216,5.3224,5.3204,5.3223,5.3225,5.3226,5.325,5.3253,5.3256,0,0,0,0,0,5.3276,5.3287,5.328,5.3279,5.3269,5.3268,5.3266,5.3253,5.3244,5.3248,5.3238,5.3226,5.3224,5.3217,5.3216,5.3224,5.3223,5.3224,5.3226,5.3248,5.3252,5.3256,0,0,0,0,0,0,5.3301,5.3285,5.3277,5.3283,5.3277,5.3263,5.3268,5.3258,5.3254,5.3252,5.3235,5.3232,5.3237,5.3231,5.3224,5.3235,5.3221,5.3223,5.3239,5.3242,5.3246,5.3247,5.3204,0,0,0,0,0,5.3307,5.3307,5.3293,5.33,5.3298,5.3284,5.3283,5.3273,5.3265,5.3263,5.3253,5.3247,5.3244,5.3243,5.324,5.3249,5.3245,5.3254,5.3257,5.326,5.3261,5.3265,5.3268,5.3231,5.3231,5.3231,0,0,5.332,5.3311,5.3312,5.3305,5.3299,5.33,5.3282,5.3283,5.3283,5.3263,5.3265,5.3258,5.3249,5.3255,5.3257,5.325,5.327,5.3262,5.3264,5.3264,5.3267,5.327,5.3273,5.3232,5.3232,5.3232,0,0,5.3343,5.3337,5.3342,5.3336,5.3328,5.3318,5.332,5.3308,5.3302,5.3305,5.329,5.3289,5.3286,5.328,5.3277,5.3299,5.3287,5.3298,5.3315,5.3318,5.3321,5.3324,5.3331,5.3334,5.33,5.33,5.33,0,5.336,5.336,5.3346,5.3348,5.3345,5.3328,5.3333,5.3328,5.3319,5.3317,5.3309,5.3305,5.3298,5.3302,5.3307,5.3306,5.3306,5.3299,5.3322,5.3324,5.3327,5.3333,5.3336,5.3301,5.3301,5.3301,5.3301,0,5.3381,5.3381,5.3386,5.3378,5.3376,5.338,5.3366,5.3366,5.3356,5.3348,5.335,5.3341,5.3336,5.3337,5.3328,5.334,5.3335,5.3325,5.3311,5.3332,5.3338,5.334,5.3303,5.3303,5.3302,5.3302,0,0,5.3418,5.3403,5.3405,5.3401,5.339,5.339,5.3393,5.3388,5.3388,5.3383,5.3384,5.3382,5.3373,5.3369,5.3359,5.3362,5.338,5.3352,5.3351,5.3357,5.3392,5.34,5.3403,5.3372,5.3373,5.3373,5.3393,0,5.3439,5.3443,5.3431,5.3438,5.3438,5.3421,5.3424,5.3417,5.341,5.3408,5.34,5.3398,5.3386,5.3384,5.3386,5.3377,5.3387,5.3376,5.3373,5.3373,5.3375,5.3406,5.3414,5.3433,5.3395,5.3396,5.3396,0,5.3463,5.3459,5.3467,5.3456,5.3455,5.3458,5.3452,5.3452,5.3444,5.3438,5.3434,5.3423,5.3425,5.3412,5.3414,5.3407,5.3405,5.3401,5.3401,5.34,5.3385,5.3405,5.3439,5.3441,5.34,5.3399,5.3399,0,5.3489,5.3486,5.349,5.3487,5.3474,5.3476,5.3471,5.3463,5.3461,5.3457,5.3455,5.3451,5.3449,5.3445,5.3433,5.3425,5.3437,5.3423,5.3431,5.3432,5.3434,5.3434,5.3467,5.3434,5.3434,5.3434,5.3434,0,5.3514,5.3518,5.3501,5.3503,5.3508,5.3494,5.35,5.3493,5.3486,5.3486,5.3472,5.3473,5.3457,5.3456,5.3446,5.3449,5.3448,5.3443,5.344,5.3444,5.3445,5.3442,5.3441,5.3435,5.3434,5.3434,5.3434,0,5.3543,5.3532,5.3535,5.3523,5.352,5.3524,5.3514,5.3515,5.3507,5.3508,5.3507,5.3494,5.3492,5.3479,5.3475,5.3468,5.3474,5.3469,5.3477,5.3475,5.3484,5.3483,5.3517,5.352,5.3485,5.3486,5.3486,0,5.3559,5.3563,5.3551,5.3551,5.3546,5.3545,5.3543,5.353,5.3528,5.352,5.3523,5.352,5.3516,5.3514,5.3504,5.35,5.3494,5.3506,5.3493,5.3497,5.3494,5.3494,5.3494,5.3509,5.3509,5.351,5.351,0,5.3588,5.3583,5.3581,5.3577,5.3575,5.3571,5.3566,5.3567,5.3551,5.3551,5.3548,5.3546,5.3541,5.3538,5.3533,5.3527,5.3516,5.3514,5.3516,5.3519,5.3524,5.3521,5.3484,5.3513,5.3513,5.3513,5.3512,5.3512,5.3611,5.3614,5.3606,5.3604,5.3599,5.3595,5.3596,5.3588,5.3586,5.3581,5.3573,5.3572,5.3565,5.3556,5.3551,5.355,5.3544,5.3546,5.3547,5.3548,5.355,5.3524,5.3549,5.3549,5.3549,5.3549,5.3549,0,5.364,5.3634,5.3632,5.3626,5.3625,5.3615,5.3609,5.3609,5.3608,5.3602,5.3599,5.3597,5.3594,5.3584,5.358,5.3581,5.3576,5.358,5.358,5.3579,5.3556,5.3554,5.3584,5.3584,5.3584,5.3584,5.3584,5.3584,5.3654,5.3657,5.3651,5.3652,5.3646,5.3645,5.3643,5.3639,5.3634,5.3632,5.363,5.3623,5.3615,5.361,5.3607,5.3604,5.3603,5.361,5.3605,5.3584,5.358,5.3577,5.3576,5.361,5.361,5.3628,5.3628,5.3628]}]]